DELTA 1 DEB, 10710

Orbit data source: Space-Track

DELTA 1 DEB, 10710 is space debris in LEO originally from a launch on Thu, 29 Jul 1976 UTC launched from the Air Force Western Test Range (AFWTR). Debris objects in space refer to the collection of defunct objects orbiting the Earth. Examples of debris include non-operational satellites, rocket bodies, and fragments generated from explosions, collisions, or faulty payload assembly.

Loading next visibility...
Identifier
10710, 1976-077AF
Orbit
LEO
Country
Flag of USUS
Related business
Manufacturer
Unknown
Mission
Spacecraft
Bus & Motor
Unknown
Mass
Unknown
Launch date (UTC)
1976-07-29 (49 years ago)
Launch vehicle
Unknown
Launch site
Air Force Western Test Range (AFWTR)
Object type
Payload
Rocket body
Debris
Shape & HBR
Unknown shape, 0.1 m
Radar Cross Section
Small (<0.1 m²)

Expand to show TLE details & history
Last TLE update: 19 hours ago

TLE from 19 hours ago
0 DELTA 1 DEB
1 10710U 76077AF  25352.44579322  .00000022  00000-0  68160-3 0  9997
2 10710 101.7648 160.6171 0259214   4.8079  50.9344 11.99245403131111
Epoch: 2025-12-18T10:41Z
TLE epoch observation values (Epoch: 2025-12-18T10:41:56.534Z)
Latitude
56.3048°
Longitude
-105.27845°
Altitude
1,565.039 km
Speed
7.147 km/s
True Right ascension
09h 30m 01s
True Declination
56° 09' 43"
Sunlit
Object was in full shadow at epoch
Visualization orbit readout
Latitude
Unknown
Longitude
Unknown
Altitude
Unknown
Speed
Unknown
Apparent Right ascension
Unknown
Apparent Declination
Unknown
Sunlit
N/A
Visualization observer readout
Local Sidereal Time
04:51:48
Azimuth
Unknown
Elevation
Unknown
Doppler factor
Unknown
Orbital elements
Apogee altitude
1,890.779 km
Perigee altitude
1,472.927 km
Semi-major axis
8,059.99 km
Eccentricity
0.02592
Inclination
101.7648°
RAAN
160.6171°
Arg. of periapsis
4.8079°
True anomaly
53.28804°
Mean anomaly
50.9344°
Eccentric anomaly
52.10644°
Mean motion
2.99945 °/min
Orbital period
120.02 mins
BSTAR
0.0006816
Loading maneuver chart data...
Computing Atmospheric mass density...
Loading historical data...
Loading historical data...
Loading historical data...
Loading historical data...
Loading historical data...
Loading historical data...
Loading historical data...

Documentation

Showing up to 5 results
|